N851TB TNCM-TNCM

Flight info

Callsign N851TB
Flight time N/A
Altitude 12000
Route TFFJ DCT TNCS
Aircraft TBM8/L-SDFGRWY/S

Departure

Time 2026-05-04 21:14
Airport Princess Juliana International Airport (TNCM)

Arrival

Time N/A
Airport Princess Juliana International Airport (TNCM)
Time Latitude Longitude Altitude Speed Heading
2026-05-04 21:03 18.04198 -63.10724 16 ft 0 kts 352°
2026-05-04 21:12 18.04206 -63.10729 16 ft 5 kts 301°
2026-05-04 21:13 18.04184 -63.10746 16 ft 8 kts 168°
2026-05-04 21:13 18.04135 -63.10736 16 ft 0 kts 170°
2026-05-04 21:13 18.04105 -63.10780 15 ft 28 kts 265°
2026-05-04 21:13 18.04047 -63.11192 16 ft 83 kts 263°
2026-05-04 21:14 18.03951 -63.11871 220 ft 91 kts 256°
2026-05-04 21:14 18.03828 -63.12514 582 ft 86 kts 254°
2026-05-04 21:14 18.03441 -63.12828 729 ft 96 kts 162°
2026-05-04 21:14 18.02848 -63.12428 1033 ft 103 kts 122°
2026-05-04 21:15 18.02453 -63.11781 1316 ft 114 kts 119°
2026-05-04 21:15 18.02048 -63.11038 1601 ft 120 kts 118°
2026-05-04 21:15 18.01638 -63.10240 1810 ft 127 kts 116°
2026-05-04 21:15 18.01233 -63.09383 1998 ft 132 kts 120°
2026-05-04 21:16 18.00796 -63.08507 2174 ft 138 kts 118°
2026-05-04 21:16 18.00357 -63.07606 2394 ft 140 kts 117°
2026-05-04 21:16 17.99965 -63.06649 2545 ft 146 kts 113°
2026-05-04 21:16 17.99555 -63.05629 2593 ft 152 kts 116°
2026-05-04 21:17 17.99098 -63.04623 2661 ft 154 kts 117°
2026-05-04 21:17 17.98600 -63.03615 2625 ft 156 kts 121°
2026-05-04 21:17 17.98096 -63.02625 2656 ft 154 kts 116°
2026-05-04 21:17 17.97658 -63.01591 2643 ft 155 kts 113°
2026-05-04 21:18 17.97247 -63.00550 2580 ft 158 kts 115°
2026-05-04 21:18 17.96878 -62.99483 2678 ft 150 kts 104°
2026-05-04 21:18 17.96587 -62.98447 2655 ft 152 kts 112°
2026-05-04 21:18 17.96055 -62.97470 2393 ft 155 kts 127°
2026-05-04 21:19 17.95436 -62.96585 2308 ft 150 kts 125°
2026-05-04 21:19 17.94841 -62.95671 2143 ft 147 kts 124°
2026-05-04 21:19 17.94278 -62.94899 1991 ft 122 kts 130°
2026-05-04 21:19 17.93673 -62.94280 1633 ft 126 kts 136°
2026-05-04 21:20 17.93006 -62.93593 1533 ft 139 kts 131°
2026-05-04 21:20 17.92353 -62.92844 1506 ft 142 kts 130°
2026-05-04 21:20 17.91708 -62.92055 1453 ft 145 kts 129°
2026-05-04 21:20 17.91086 -62.91189 1245 ft 151 kts 121°
2026-05-04 21:21 17.90671 -62.90195 1150 ft 150 kts 108°
2026-05-04 21:21 17.90417 -62.89132 1043 ft 149 kts 99°
2026-05-04 21:21 17.90263 -62.88056 944 ft 150 kts 94°
2026-05-04 21:21 17.90292 -62.86977 726 ft 145 kts 88°
2026-05-04 21:22 17.90376 -62.85939 525 ft 142 kts 86°
2026-05-04 21:22 17.90427 -62.84889 210 ft 147 kts 89°
2026-05-04 21:22 17.90450 -62.83823 165 ft 132 kts 90°
2026-05-04 21:22 17.90699 -62.82957 588 ft 121 kts 53°
2026-05-04 21:23 17.91471 -62.82608 958 ft 134 kts
2026-05-04 21:23 17.92395 -62.82945 1142 ft 155 kts 315°
2026-05-04 21:23 17.92726 -62.83962 1410 ft 150 kts 263°
2026-05-04 21:23 17.92631 -62.84990 1396 ft 124 kts 260°
2026-05-04 21:24 17.92509 -62.85796 1405 ft 110 kts 246°
2026-05-04 21:24 17.92179 -62.86465 1440 ft 102 kts 220°
2026-05-04 21:24 17.91627 -62.87003 1273 ft 108 kts 213°
2026-05-04 21:24 17.91035 -62.87383 1147 ft 94 kts 188°
2026-05-04 21:25 17.90454 -62.87316 1039 ft 83 kts 142°
2026-05-04 21:25 17.90214 -62.86796 896 ft 83 kts 85°
2026-05-04 21:25 17.90390 -62.86182 644 ft 89 kts 81°
2026-05-04 21:25 17.90406 -62.85553 433 ft 83 kts 85°
2026-05-04 21:26 17.90421 -62.84946 243 ft 83 kts 86°
2026-05-04 21:26 17.90435 -62.84337 33 ft 78 kts 91°
2026-05-04 21:26 17.90498 -62.83804 222 ft 86 kts 73°
2026-05-04 21:26 17.91062 -62.83437 439 ft 123 kts
2026-05-04 21:27 17.91936 -62.83682 684 ft 143 kts 336°
2026-05-04 21:27 17.92437 -62.84550 814 ft 152 kts 272°
2026-05-04 21:27 17.92470 -62.85587 842 ft 138 kts 269°
2026-05-04 21:27 17.92463 -62.86583 935 ft 140 kts 262°
2026-05-04 21:28 17.92136 -62.87391 959 ft 103 kts 209°
2026-05-04 21:28 17.91527 -62.87353 1000 ft 90 kts 142°
2026-05-04 21:28 17.91013 -62.87006 971 ft 94 kts 135°
2026-05-04 21:28 17.90580 -62.86495 827 ft 92 kts 109°
2026-05-04 21:29 17.90414 -62.85871 615 ft 87 kts 93°
2026-05-04 21:29 17.90417 -62.85247 376 ft 85 kts 87°
2026-05-04 21:29 17.90436 -62.84638 69 ft 84 kts 91°
2026-05-04 21:29 17.90446 -62.84183 20 ft 23 kts 92°
2026-05-04 21:30 17.90446 -62.84098 13 ft 6 kts 71°
2026-05-04 21:30 17.90449 -62.84058 10 ft 10 kts 200°
2026-05-04 21:30 17.90448 -62.84170 18 ft 20 kts 273°
2026-05-04 21:30 17.90441 -62.84338 30 ft 23 kts 267°
2026-05-04 21:31 17.90383 -62.84434 37 ft 9 kts 279°
2026-05-04 21:31 17.90387 -62.84552 45 ft 18 kts 240°
2026-05-04 21:31 17.90369 -62.84546 45 ft 0 kts 32°
2026-05-04 21:37 17.90382 -62.84549 45 ft 9 kts 309°
2026-05-04 21:37 17.90408 -62.84647 50 ft 18 kts 321°
2026-05-04 21:37 17.90433 -62.84538 40 ft 40 kts 89°
2026-05-04 21:38 17.90455 -62.84041 68 ft 88 kts 91°
2026-05-04 21:38 17.90275 -62.83488 442 ft 82 kts 142°
2026-05-04 21:38 17.89705 -62.83213 596 ft 98 kts 158°
2026-05-04 21:38 17.88963 -62.83082 846 ft 120 kts 189°
2026-05-04 21:39 17.88151 -62.83436 1064 ft 147 kts 201°
2026-05-04 21:39 17.87265 -62.83971 1562 ft 145 kts 209°
2026-05-04 21:39 17.86447 -62.84569 2040 ft 145 kts 215°
2026-05-04 21:39 17.85639 -62.85368 2033 ft 168 kts 221°
2026-05-04 21:40 17.84852 -62.86262 2238 ft 166 kts 225°
2026-05-04 21:40 17.84138 -62.87221 2443 ft 169 kts 238°
2026-05-04 21:40 17.83642 -62.88338 2663 ft 168 kts 237°
2026-05-04 21:40 17.83171 -62.89448 2860 ft 165 kts 237°
2026-05-04 21:41 17.82729 -62.90558 3089 ft 165 kts 239°
2026-05-04 21:41 17.82320 -62.91682 3311 ft 165 kts 242°
2026-05-04 21:41 17.81921 -62.92809 3545 ft 165 kts 243°
2026-05-04 21:41 17.81529 -62.93948 3781 ft 167 kts 244°
2026-05-04 21:42 17.81130 -62.95124 3929 ft 176 kts 245°
2026-05-04 21:42 17.80710 -62.96347 3998 ft 184 kts 245°
2026-05-04 21:42 17.80250 -62.97629 4017 ft 190 kts 246°
2026-05-04 21:42 17.79781 -62.98940 4027 ft 193 kts 246°
2026-05-04 21:43 17.79304 -63.00267 4019 ft 194 kts 246°
2026-05-04 21:43 17.78822 -63.01590 3999 ft 193 kts 247°
2026-05-04 21:43 17.78337 -63.02898 3984 ft 192 kts 247°
2026-05-04 21:43 17.77850 -63.04198 3980 ft 191 kts 246°
2026-05-04 21:44 17.77347 -63.05484 3973 ft 190 kts 244°
2026-05-04 21:44 17.76793 -63.06736 3980 ft 189 kts 241°
2026-05-04 21:44 17.76202 -63.07970 3989 ft 189 kts 240°
2026-05-04 21:44 17.75528 -63.09156 4020 ft 189 kts 230°
2026-05-04 21:45 17.74719 -63.10243 4030 ft 189 kts 224°
2026-05-04 21:45 17.73837 -63.11263 3959 ft 184 kts 220°
2026-05-04 21:45 17.72960 -63.12218 3764 ft 181 kts 220°
2026-05-04 21:45 17.72126 -63.13152 3477 ft 170 kts 221°
2026-05-04 21:46 17.71333 -63.14024 3184 ft 166 kts 219°
2026-05-04 21:46 17.70530 -63.14906 2897 ft 164 kts 219°
2026-05-04 21:46 17.69773 -63.15763 2639 ft 163 kts 221°
2026-05-04 21:46 17.69006 -63.16638 2377 ft 163 kts 222°
2026-05-04 21:47 17.68245 -63.17518 2124 ft 163 kts 223°
2026-05-04 21:47 17.67485 -63.18403 1875 ft 163 kts 224°
2026-05-04 21:47 17.66731 -63.19291 1577 ft 162 kts 225°
2026-05-04 21:47 17.65858 -63.20010 1178 ft 159 kts 203°
2026-05-04 21:48 17.65015 -63.20528 742 ft 114 kts 207°
2026-05-04 21:48 17.64480 -63.21061 459 ft 110 kts 238°
2026-05-04 21:48 17.64469 -63.21871 142 ft 112 kts 298°
2026-05-04 21:48 17.64708 -63.22480 177 ft 81 kts 301°
2026-05-04 21:49 17.65084 -63.22959 233 ft 93 kts 347°
2026-05-04 21:49 17.65499 -63.22648 361 ft 92 kts 82°
2026-05-04 21:49 17.65457 -63.21984 696 ft 92 kts 105°
2026-05-04 21:49 17.65210 -63.21284 775 ft 110 kts 115°
2026-05-04 21:50 17.64806 -63.20546 847 ft 122 kts 124°
2026-05-04 21:50 17.64059 -63.20271 828 ft 119 kts 208°
2026-05-04 21:50 17.64018 -63.20959 551 ft 117 kts 343°
2026-05-04 21:50 17.64398 -63.21569 308 ft 104 kts 282°
2026-05-04 21:51 17.64599 -63.22191 140 ft 44 kts 294°